Hourly Data Report for September 30, 2020

WINNIPEG THE FORKS
MANITOBA
Current Station Operator: ECCC - MSC

49°53'18.008" N
97°07'46.007" W
230.00 m
5023262
71579
XWN

Download Data

Hourly Data (September 2020)
Hourly Data Report for September 30, 2020
TIME
LST
Temp Definition
°C
Dew Point Definition
°C
Rel Hum Definition
%
Precip. Amount Definition
mm

Wind Dir Definition
10's deg

Wind Spd Definition
km/h
Visibility Definition
km
Stn Press Definition
kPa
Hmdx Definition


Wind Chill Definition


Weather Definition


00:00 10.3 5.5 72 0.0 29 5   97.77     LegendNANA
01:00 10.1 5.3 72 0.0 32 5   97.82     LegendNANA
02:00 9.7 4.4 70 0.0 32 9   97.85     LegendNANA
03:00 9.7 3.4 65 0.0 30 6   97.91     LegendNANA
04:00 9.8 3.6 65 0.0 28 4   97.96     LegendNANA
05:00 9.1 3.9 70 0.0 28 6   97.99     LegendNANA
06:00 8.6 4.5 75 0.0 29 6   98.03     LegendNANA
07:00 9.4 4.7 72 0.0 28 5   98.09     LegendNANA
08:00 10.1 5.1 71 0.0 31 7   98.13     LegendNANA
09:00 10.9 4.7 66 0.0 32 14   98.18     LegendNANA
10:00 9.4 4.4 71 0.0 32 11   98.25     LegendNANA
11:00 9.7 5.2 74 0.2 31 11   98.30     LegendNANA
12:00 11.2 5.1 66 0.0 31 13   98.30     LegendNANA
13:00 11.4 5.2 65 0.0 31 10   98.32     LegendNANA
14:00 12.2 4.8 60 0.0 31 9   98.31     LegendNANA
15:00 9.9 6.5 80 0.9 32 12   98.39     LegendNANA
16:00 10.3 5.5 72 0.0 32 12   98.44     LegendNANA
17:00 9.8 5.3 74 0.3 32 14   98.54     LegendNANA
18:00 8.8 5.3 78 0.0 32 16   98.66     LegendNANA
19:00 8.6 5.0 78 0.0 32 13   98.76     LegendNANA
20:00 7.8 5.3 84 0.0 33 14   98.88     LegendNANA
21:00 7.0 3.7 79 0.0 34 17   99.02     LegendNANA
22:00 6.0 2.4 78 0.0 35 16   99.15     LegendNANA
23:00 5.4 2.0 79 0.0 34 13   99.27     LegendNANA

Notes on Data Quality.

Legend

  • E = Estimated
  • M = Missing
  • NA = Not Available*
  • [empty] = Indicates an unobserved value
Date modified: